{"data":{"norad_id":48054,"epoch":"2026-09-19T19:36:34.632000Z","epoch_age_seconds":77356,"freshness":"FRESH","line1":"1 48054U 21025N   26262.81706750 -.00000169  00000+0 -49792-3 0  9994","line2":"2 48054  87.8924 301.3949 0002090  87.3214 272.8155 13.13470249266059","mean_motion":13.13470249,"eccentricity":0.000209,"inclination_deg":87.8924,"raan_deg":301.3949,"arg_perigee_deg":87.3214,"mean_anomaly_deg":272.8155,"bstar":-0.00049792,"rev_number":26605,"period_min":109.63324072976,"perigee_km":1208.178569519,"apogee_km":1211.3503123213,"semimajor_km":7587.9014409202,"source":"CELESTRAK","updated_at":"2026-09-20T09:00:44.586369Z"}}